Location: Malvern Link
(52.1333°N, 2.3000°W)
Time: 14:43:45
(UTC+00:00)

Cosmos 1634 Rocket - Pass Details

Date: 02 December 2021
Orbit: 959 x 993 km, 82.9° (Epoch: 23 January)

Event Time Altitude Azimuth Distance (km) Brightness Sun altitude
Rises 03:08:26 0° 355° (N) 3,716 7.2 -42.9°
Reaches altitude 10° 03:11:53 10° 13° (NNE) 2,758 6.6 -42.4°
Maximum altitude 03:16:09 18° 56° (NE) 2,191 6.3 -41.7°
Drops below altitude 10° 03:20:22 10° 99° (E) 2,732 6.9 -41.1°
Sets 03:23:45 0° 117° (ESE) 3,668 7.5 -40.6°
